Kalaeloa, HI

6:38 PM HST on February 22, 2018 (GMT -1000)
Kalaeloa (John Rodgers Field)

Weather History for PHJR - September, 2013

Change the Weather History Date:

Thursday, September 26, 2013

  Actual Average (PHHI) Record (PHHI)
Temperature  
Mean Temperature 76 °F -  
Max Temperature 82 °F 82 °F 89 °F (2002)
Min Temperature 70 °F 68 °F 64 °F (2000)
Cooling Degree Days 11    
Growing Degree Days 26 (Base 50)    
Moisture  
Dew Point 67 °F    
Average Humidity 75    
Maximum Humidity 87    
Minimum Humidity 62    
Precipitation  
Precipitation 0.00 in - - ()
Sea Level Pressure  
Sea Level Pressure 30.01 in    
Wind  
Wind Speed 3 mph (ESE)    
Max Wind Speed 16 mph    
Max Gust Speed 21 mph    
Visibility 10 miles    
Events      
Averages and records for this station are not official NWS values.
T = Trace of Precipitation, MM = Missing Value Source: NWS Daily Summary

Daily Weather History Graph

Daily Weather History Graph

Search for Another Location

Airport or City:

Trip Planner

Search our weather history database for the weather conditions in past years. The results will help you decide how hot, cold, wet, or windy it might be!

Date:

Astronomy

Sep. 26, 2013 Rise Set
Actual Time 6:22 AM HST 6:24 PM HST
Civil Twilight 6:00 AM HST 6:46 PM HST
Nautical Twilight 5:34 AM HST 7:12 PM HST
Astronomical Twilight 5:08 AM HST 7:38 PM HST
Moon No Moon Rise 12:46 PM HST (9/26)
Length of Visible Light 12h 46m
Length of Day
12h 02m
Waning Gibbous, 52% of the Moon is Illuminated
Sep 26
Waning Gibbous
Sep 26
Last Quarter
Oct 4
New
Oct 11
First Quarter
Oct 18
Full

Hourly Weather History & Observations

Time (HST) Temp. Heat Index Dew Point Humidity Pressure Visibility Wind Dir Wind Speed Gust Speed Precip Events Conditions
12:53 AM 70.0 °F - 66.0 °F 87% 30.02 in 10.0 mi Calm Calm - N/A   Clear
1:53 AM 72.0 °F - 66.9 °F 84% 30.01 in 10.0 mi Calm Calm - N/A   Overcast
2:53 AM 73.0 °F - 66.9 °F 81% 29.99 in 10.0 mi Variable 3.5 mph - N/A   Mostly Cloudy
3:53 AM 73.0 °F - 66.9 °F 81% 29.99 in 10.0 mi Calm Calm - N/A   Overcast
4:53 AM 72.0 °F - 66.9 °F 84% 30.00 in 10.0 mi Calm Calm - N/A   Scattered Clouds
5:53 AM 71.1 °F - 66.9 °F 87% 30.01 in 10.0 mi ENE 3.5 mph - N/A   Clear
6:53 AM 72.0 °F - 68.0 °F 87% 30.02 in 10.0 mi Calm Calm - N/A   Clear
7:53 AM 78.1 °F - 68.0 °F 71% 30.04 in 10.0 mi ENE 5.8 mph - N/A   Scattered Clouds
8:53 AM 78.1 °F - 66.9 °F 68% 30.04 in 10.0 mi East 6.9 mph - N/A   Overcast
9:53 AM 82.9 °F 86.5 °F 69.1 °F 63% 30.04 in 10.0 mi Variable 6.9 mph 16.1 mph N/A   Mostly Cloudy
10:53 AM 80.1 °F 82.9 °F 69.1 °F 69% 30.04 in 10.0 mi SE 9.2 mph 20.7 mph N/A   Mostly Cloudy
11:53 AM 81.0 °F 84.4 °F 70.0 °F 69% 30.03 in 10.0 mi SSE 16.1 mph - 0.00 in   Mostly Cloudy
12:53 PM 79.0 °F - 66.9 °F 66% 30.02 in 10.0 mi SSE 15.0 mph 18.4 mph 0.00 in   Mostly Cloudy
1:53 PM 81.0 °F 84.1 °F 69.1 °F 67% 29.99 in 10.0 mi ESE 5.8 mph - 0.00 in   Mostly Cloudy
2:53 PM 82.0 °F 85.5 °F 69.1 °F 65% 29.98 in 10.0 mi Variable 4.6 mph - N/A   Scattered Clouds
3:53 PM 81.0 °F 83.8 °F 68.0 °F 65% 29.97 in 10.0 mi SE 6.9 mph - N/A   Clear
4:53 PM 79.0 °F - 68.0 °F 69% 29.99 in 10.0 mi SE 8.1 mph - N/A   Clear
5:53 PM 78.1 °F - 64.0 °F 62% 29.99 in 10.0 mi Variable 4.6 mph - N/A   Clear
6:53 PM 75.9 °F - 64.9 °F 69% 30.00 in 10.0 mi Calm Calm - N/A   Clear
7:43 PM 73.4 °F - 66.2 °F 78% 29.99 in 10.0 mi Calm Calm - N/A   Partly Cloudy
7:53 PM 73.9 °F - 66.9 °F 79% 30.02 in 10.0 mi Calm Calm - N/A   Partly Cloudy
8:53 PM 73.0 °F - 66.9 °F 81% 30.02 in 10.0 mi Calm Calm - N/A   Clear
9:53 PM 72.0 °F - 66.0 °F 81% 30.03 in 10.0 mi Variable 3.5 mph - N/A   Partly Cloudy
10:53 PM 72.0 °F - 66.0 °F 81% 30.04 in 10.0 mi Calm Calm - N/A   Clear
11:01 PM 71.6 °F - 66.2 °F 83% 30.01 in 10.0 mi Calm Calm - N/A   Partly Cloudy
11:53 PM 71.1 °F - 66.0 °F 84% 30.03 in 10.0 mi Calm Calm - N/A   Clear